Regional Weather Roundup
Issued by NWS

Home | Current Version | Previous Version | Text Only | Print | Product List | Glossary On
Versions: 1 2 3 4 5 6 7 8 9 10 11 12 13 14 15 16 17 18 19 20 21 22 23 24 25 26 27 28 29 30 31 32 33 34 35 36 37 38 39 40 41 42 43 44 45 46 47 48 49 50
000
ASUS43 KLOT 021710
RWRIL

ILLINOIS REGIONAL WEATHER ROUNDUP
NATIONAL WEATHER SERVICE CHICAGO/ROMEOVILLE IL
1200 PM CDT TUE SEP 02 2014

NOTE: "FAIR" INDICATES FEW OR NO CLOUDS BELOW 12,000 FEET WITH NO
SIGNIFICANT WEATHER AND/OR OBSTRUCTIONS TO VISIBILITY.

* THESE STATIONS ARE NOT UNDER NWS QUALITY CONTROL. THEY ALSO MAY NOT
  REPORT WEATHER SUCH AS PRECIPITATION OR FOG.

ILZ001-002-007-009-015-016-024-021800-
NORTHWEST ILLINOIS

CITY           SKY/WX    TMP DP  RH WIND       PRES   REMARKS
MOLINE         MOSUNNY   76  59  55 CALM      29.94F
STERLING*      MOSUNNY   75  61  60 CALM      29.94S
SAVANNA*       SUNNY     71  60  67 SW5       29.93
$$

ILZ003-004-008-010-011-017-018-021800-
NORTH CENTRAL ILLINOIS

CITY           SKY/WX    TMP DP  RH WIND       PRES   REMARKS
ROCKFORD       PTSUNNY   73  56  54 SW3       29.92F
FREEPORT*      MOSUNNY   73  65  76 W7        29.94R
ROCHELLE*      PTSUNNY   70  60  70 NW7       29.93F
DE KALB*       MOSUNNY   73  61  65 W8        29.92F
PERU*          PTSUNNY   78  61  55 W7        29.93F HX  80
$$

ILZ005-006-012>014-019>023-021800-
NORTHEAST ILLINOIS

CITY           SKY/WX    TMP DP  RH WIND       PRES   REMARKS
CHICAGO-OHARE  PTSUNNY   79  58  48 W9        29.90S HX  80
CHICAGO-MIDWAY PTSUNNY   80  62  54 W5        29.89F HX  81
AURORA         MOSUNNY   78  60  53 W10       29.92F
LANSING*         N/A    N/A N/A N/A MISG        N/A
JOLIET*        MOSUNNY   78  60  54 W7        29.93S
WAUKEGAN       MOSUNNY   78  57  48 W6        29.89F
DUPAGE AIRPORT SUNNY     80  60  50 W10       29.92S HX  81
KANKAKEE*      PTSUNNY   77  69  77 W8        29.93S
WHEELING       SUNNY     80  56  43 NW7       29.91F HX  80
MORRIS*        MOSUNNY   79  64  61 NW6       29.93R HX  81
ROMEOVILLE*    MOSUNNY   78  61  55 NW9       29.92S
NORTHERLY ISL    N/A     74  65  73 NE5         N/A
$$

LMZ740>746-021800-
SOUTHERN LAKE MICHIGAN

STATION/POSITION SKY/WX   TEMP    WIND        PRES    VSBY  WAVE
                          AIR SEA DIR/SP/G                  HT/PER
                          (F)     (DEG/KT/KT) (MB)    (MI)  (FT/S)
SOUTHERN BUOY              71 72  200/  2/  4 1012.4F         1
WAUKEGAN HARBOR            74     160/  5/  8   N/A
HARRISON CRIB              71      90/  5/  5   N/A
BURNHAM HARBOR             74      80/  4/  5   N/A
CALUMET HARBOR             72      50/  7/  8 1011.5R
MICHIGAN CITY              71     240/  4/  5   N/A
MICHIGAN CITY 6N           72 73  280/  4/  6   N/A           1/ 2
ST. JOSEPH                 71 72  230/  4/  6   N/A           1/ 3
$$

ILZ025>027-034>036-040-047-049-050-058-095>099-021800-
WEST-CENTRAL ILLINOIS

CITY           SKY/WX    TMP DP  RH WIND       PRES   REMARKS
QUINCY         CLOUDY    77  67  71 W8        29.96S
GALESBURG*     PTSUNNY   83  69  62 CALM      29.94F HX  86
MACOMB*        PTSUNNY   77  67  69 NW7       29.97S
JACKSONVILLE*  CLOUDY    78  70  77 W7        29.96F HX  80
PITTSFIELD*    CLOUDY    78  69  73 W7        29.98R HX  80
$$

ILZ028>032-037-038-041>044-048-051>054-059>061-021800-
CENTRAL ILLINOIS

CITY           SKY/WX    TMP DP  RH WIND       PRES   REMARKS
PONTIAC        PTSUNNY   79  68  69 W7        29.93S HX  81
DECATUR        CLOUDY    76  69  79 W5        29.96S
PEORIA         PTSUNNY   80  67  64 VRB7      29.93F HX  82
LACON*         PTSUNNY   77  65  68 CALM      29.93S
LINCOLN*       CLOUDY    78  68  70 W5        29.92S HX  80
SPRINGFIELD    CLOUDY    76  68  76 W6        29.96S
TAYLORVILLE    CLOUDY    73  68  83 W6        29.96F
$$

ILZ033-039-045-046-055>057-062-063-021800-
EAST-CENTRAL ILLINOIS

CITY           SKY/WX    TMP DP  RH WIND       PRES   REMARKS
CHAMPAIGN      CLOUDY    75  69  81 VRB6      29.96F
DANVILLE*      CLOUDY    72  68  88 SW6       29.93F
RANTOUL*       CLOUDY    76  67  74 SW8       29.96S
MATTOON        CLOUDY    73  68  84 W6        29.96S
PARIS*         CLOUDY    72  70  94 NW3       29.97S
$$

ILZ079-100>102-021800-
SOUTHWEST ILLINOIS

CITY           SKY/WX    TMP DP  RH WIND       PRES   REMARKS
BELLEVILLE     CLOUDY    77  73  88 NW6       29.96R
CAHOKIA*       CLOUDY    77  71  82 W8        29.97S
SPARTA*        CLOUDY    77  70  77 W8        29.99R
$$

ILZ064>066-069>071-074>076-080>082-084>086-088>090-092>094-021800-
SOUTH-CENTRAL ILLINOIS

CITY           SKY/WX    TMP DP  RH WIND       PRES   REMARKS
CARBONDALE     CLOUDY    81  70  69 W8        29.97R HX  84
CAIRO*         CLOUDY    81  69  65 SW8       29.98F HX  84
EFFINGHAM*     CLOUDY    74  68  82 W7        29.96S
MARION         PTSUNNY   82  73  74 SW12      29.98R HX  88
MT. VERNON     CLOUDY    79  70  73 W10       29.96S HX  81
CENTRALIA*     CLOUDY    76  70  80 W8        29.97R
SALEM*         CLOUDY    78  73  84 W13       29.96S HX  80
METROPOLIS*    CLOUDY    82  72  73 W6        29.97S HX  86
$$

ILZ067-068-072-073-078-083-087-091-021800-
SOUTHEAST ILLINOIS

CITY           SKY/WX    TMP DP  RH WIND       PRES   REMARKS
LAWRENCEVILLE  CLOUDY    74  71  91 N10       29.95S
FLORA*         CLOUDY    77  71  82 W9G17     29.96R
FAIRFIELD*     CLOUDY    81  75  83 W9        29.95R HX  86
HARRISBURG*    CLOUDY    82  74  75 SW9       29.97R HX  88
ROBINSON*      RAIN      74  72  95 W6        29.96F
CARMI*         CLOUDY    85  75  73 W10       29.94F HX  93
$$

ABBREVIATIONS USED IN REMARKS
   TC - TEMPERATURE IN CELSIUS
  WCI - WIND CHILL INDEX
   HX - HEAT INDEX
  VSB - VISIBILITY
$$



USA.gov is the U.S. government's official web portal to all federal, state and local government web resources and services.